{"data":{"norad_id":63681,"epoch":"2026-05-25T04:16:50.553696Z","epoch_age_seconds":59406,"freshness":"FRESH","line1":"1 63681U 25085T   26145.17836289  .00024010  00000+0  87886-3 0  9992","line2":"2 63681  43.0036 318.4469 0001291 278.6431  81.4274 15.27592006 60572","mean_motion":15.27592006,"eccentricity":0.0001291,"inclination_deg":43.0036,"raan_deg":318.4469,"arg_perigee_deg":278.6431,"mean_anomaly_deg":81.4274,"bstar":0.00087886,"rev_number":6057,"period_min":94.266007830889,"perigee_km":482.12737150813,"apogee_km":483.89892047582,"semimajor_km":6861.150145992,"source":"CELESTRAK","updated_at":"2026-05-25T13:38:20.094291Z"}}